SCOUT A DEB, 2994

Orbit data source: Space-Track

SCOUT A DEB, 2994 is space debris in LEO originally from a launch on Mon, 25 Sep 1967 UTC launched from the Air Force Western Test Range (AFWTR). Debris objects in space refer to the collection of defunct objects orbiting the Earth. Examples of debris include non-operational satellites, rocket bodies, and fragments generated from explosions, collisions, or faulty payload assembly.

Loading next visibility...
Identifier
2994, 1967-092C
Orbit
LEO
Country
Flag of USUS
Related business
Manufacturer
Unknown
Mission
Spacecraft
Bus & Motor
Unknown
Mass
Unknown
Launch date (UTC)
1967-09-25 (58 years ago)
Launch vehicle
Unknown
Launch site
Air Force Western Test Range (AFWTR)
Object type
Payload
Rocket body
Debris
Shape & HBR
Unknown
Radar Cross Section
Small (<0.1 m²)

Expand to show TLE details & history
Last TLE update: 18 hours ago

TLE from 18 hours ago
0 SCOUT A DEB
1 02994U 67092C   25260.23200093  .00000442  00000-0  29793-3 0  9995
2 02994  89.4442   1.9347 0087823 342.6834  17.1351 13.97145376936663
Epoch: 2025-09-17T05:34Z
TLE epoch observation values (Epoch: 2025-09-17T05:34:04.88Z)
Latitude
-0.0001°
Longitude
-77.99654°
Altitude
845.643 km
Speed
7.461 km/s
True Right ascension
00h 07m 44s
True Declination
0° 00' 00"
Sunlit
Object was in full shadow at epoch
Visualization orbit readout
Latitude
Unknown
Longitude
Unknown
Altitude
Unknown
Speed
Unknown
Apparent Right ascension
Unknown
Apparent Declination
Unknown
Sunlit
N/A
Visualization observer readout
Local Sidereal Time
16:05:55
Azimuth
Unknown
Elevation
Unknown
Doppler factor
Unknown
Orbital elements
Apogee altitude
964.604 km
Perigee altitude
836.754 km
Semi-major axis
7,278.816 km
Eccentricity
0.00878
Inclination
89.4442°
RAAN
1.9347°
Arg. of periapsis
342.6834°
True anomaly
17.43475°
Mean anomaly
17.1351°
Eccentric anomaly
17.28461°
Mean motion
3.49504 °/min
Orbital period
103 mins
BSTAR
0.00029793
Loading maneuver chart data...
Computing Atmospheric mass density...
Loading historical data...
Loading historical data...
Loading historical data...
Loading historical data...
Loading historical data...
Loading historical data...
Loading historical data...

Documentation

Showing up to 5 results
|